Lapse_Rate
5.7 6.5 6.5 6.5 6.5 6.5 6.5 6.5 6.5 6.5 6.5 6.5 6.5 6.5 6.5 5.0 5.3 4.4 4.6 5.4 4.4 4.2 3.6 4.2 4.2 4.6 4.4 3.6 3.2 2.4 2.1 1.7 2.5 2.1 2.4 1.6 1.9 1.7 2.5 3.9 4.9 4.6 4.7 4.3
6.5 6.5 6.5 6.5 6.5 6.5 6.5 6.5 6.5 6.5 6.5 6.5 6.5 6.5 6.5 6.1 6.0 5.7 5.5 4.6 3.7 3.5 3.0 3.6 4.4 4.0 3.6 2.7 2.9 2.7 2.7 1.7 2.4 3.2 1.7 1.9 1.5 1.9 2.9 3.8 4.6 4.5 4.6 4.0
6.5 6.5 6.3 6.5 6.5 6.5 6.5 6.5 6.5 6.5 6.5 6.5 6.5 6.5 6.5 6.5 5.7 6.0 5.5 4.9 2.9 2.8 2.0 3.4 4.3 3.3 3.1 2.9 2.6 2.7 2.5 2.0 1.8 2.3 2.1 1.2 1.7 2.2 2.6 2.3 2.4 3.7 4.4 4.1
6.5 6.3 6.5 6.5 6.5 6.5 6.5 6.5 6.5 6.5 6.5 6.5 6.5 6.5 6.5 6.5 6.5 6.4 6.2 4.9 4.1 2.5 2.1 3.9 3.4 3.0 2.3 2.5 2.8 2.6 3.0 2.5 1.9 2.1 3.1 3.4 4.4 3.0 2.3 1.9 2.1 3.2 3.8 3.7
6.5 6.5 6.5 6.5 6.5 6.5 6.5 6.5 6.5 6.5 6.5 6.5 6.5 6.5 6.5 6.5 6.5 6.5 6.3 5.8 3.7 2.4 1.7 3.4 3.6 3.2 2.2 2.6 1.3 2.0 3.3 3.7 3.2 2.6 3.2 3.3 2.6 3.5 1.9 2.0 2.2 2.1 2.6 3.1
6.5 6.1 6.4 6.5 6.5 6.5 6.5 6.5 6.5 6.5 6.5 6.5 6.5 6.5 6.5 6.5 6.5 6.5 6.3 6.2 4.0 2.8 2.0 3.1 3.2 2.9 2.8 -0.1 -0.3 0.9 2.0 3.4 3.1 2.1 2.2 3.4 3.5 3.4 2.8 2.3 2.1 1.4 1.1 1.2
6.5 6.5 6.5 6.2 6.5 6.5 6.5 6.5 6.5 6.5 6.5 6.5 6.5 6.5 6.5 6.5 6.5 6.5 6.3 5.9 3.8 3.0 2.4 1.6 1.5 2.7 2.5 1.1 0.4 0.8 1.9 2.6 2.5 3.1 2.5 2.8 3.5 3.8 3.4 3.0 2.7 1.8 1.9 1.5
6.5 6.5 6.5 6.5 6.5 6.5 6.5 6.5 6.5 6.5 6.5 6.5 6.5 6.5 6.5 6.5 5.5 4.9 3.1 4.5 3.7 3.1 2.2 1.1 1.0 1.5 1.4 1.1 0.9 1.7 1.8 2.8 3.3 2.5 2.5 3.1 3.8 3.8 3.7 3.5 3.1 2.6 2.4 1.5
6.5 6.5 6.5 6.5 6.5 6.5 6.5 6.5 6.5 6.5 6.5 6.5 6.5 6.5 6.5 6.5 6.5 6.0 4.4 3.5 2.9 2.1 1.9 1.7 1.3 0.4 0.7 1.6 0.1 0.8 1.6 2.7 3.3 2.9 3.0 2.6 3.2 3.8 4.1 3.5 2.9 2.4 1.2 1.1
6.5 6.5 6.5 6.5 6.1 6.4 6.5 6.5 6.5 6.5 6.5 6.5 6.5 6.5 6.5 6.5 6.5 6.5 6.2 3.4 1.4 1.4 1.6 1.8 1.9 0.2 0.4 1.1 0.9 0.3 1.9 2.7 3.3 2.3 3.0 2.3 2.3 3.7 3.7 3.1 2.8 2.2 1.1 1.4
6.5 6.5 6.5 6.5 6.5 6.5 6.5 6.5 6.5 6.5 6.5 6.5 6.5 6.5 6.5 6.5 6.5 6.5 5.4 2.7 0.8 0.4 0.4 0.8 0.9 1.2 -0.1 0.4 0.2 0.2 1.4 2.5 2.5 2.2 2.1 2.4 1.4 2.9 2.8 3.2 2.9 1.8 1.0 0.3
6.5 6.5 6.5 6.5 6.5 6.5 6.5 6.5 6.5 6.5 6.5 6.5 6.5 6.5 6.5 6.5 6.2 4.6 3.7 2.1 0.9 0.1 0.4 0.5 0.7 0.9 -0.4 -0.5 -0.5 -0.1 1.4 1.7 2.3 1.7 2.0 1.5 1.3 2.3 2.3 2.7 2.6 1.3 1.0 0.7
6.5 6.5 6.5 6.5 6.5 6.5 6.5 6.5 6.5 6.5 6.5 6.5 6.5 6.5 6.5 6.2 6.2 3.8 3.1 1.7 1.6 1.4 0.8 0.0 -0.2 0.4 0.8 0.3 -0.6 -0.0 1.0 1.3 1.6 1.2 1.5 0.9 0.5 1.5 1.8 1.9 1.0 0.9 0.4 1.0
5.3 6.5 6.5 6.5 6.5 6.5 6.5 6.5 6.5 6.5 6.5 6.5 6.5 6.5 6.5 6.5 6.5 5.5 3.9 1.8 -0.1 1.0 1.2 1.0 -0.1 0.5 1.2 0.1 -0.6 -0.1 0.4 1.3 1.4 1.4 1.0 1.0 0.9 0.6 0.3 0.7 0.3 0.2 0.3 0.3
6.5 6.5 6.5 6.5 6.5 6.5 6.5 6.5 6.5 6.5 6.5 6.5 6.5 6.5 6.5 6.5 6.5 5.9 3.6 1.6 1.6 1.0 0.9 -0.1 -0.6 -1.7 -1.4 -0.8 -0.8 0.2 0.5 0.1 1.1 1.6 1.6 1.2 1.4 0.9 0.9 0.3 0.2 0.3 0.1 0.5
6.5 6.5 6.5 6.5 6.5 6.5 6.5 6.5 6.5 6.5 6.5 6.5 6.5 6.5 6.5 6.1 5.1 5.0 4.4 4.4 3.8 3.2 2.6 1.6 0.4 -0.9 -1.0 -0.4 -0.8 -0.0 0.1 -0.4 1.1 2.1 2.0 1.7 1.1 0.4 0.3 0.2 -0.0 -0.2 -0.0 -0.0
6.5 6.5 6.5 6.5 6.5 6.5 6.5 6.5 6.5 6.5 6.5 6.5 6.5 6.5 6.5 6.5 6.3 5.8 4.8 4.2 3.8 3.5 3.1 2.8 1.1 0.2 -0.0 -0.4 -0.3 -0.4 -0.9 0.2 1.4 1.7 1.0 0.6 0.3 0.4 0.1 -0.1 -0.0 -0.2 -0.3 -0.4
6.5 6.5 6.5 6.5 6.5 6.5 6.5 6.5 6.5 6.5 6.5 6.5 6.5 6.5 6.4 6.3 5.9 5.1 5.2 4.3 2.7 2.1 1.1 1.2 1.2 1.3 0.2 -0.6 -0.8 -1.3 -0.2 0.5 1.0 0.8 0.6 0.3 0.4 0.1 -0.0 0.1 0.3 -0.3 -0.6 -1.0
6.5 6.5 6.5 6.5 6.5 6.5 6.5 6.5 6.5 6.5 6.5 6.5 6.5 6.5 6.0 5.4 5.6 6.5 5.4 4.3 3.7 1.9 0.7 -0.8 -1.0 -0.6 -1.5 -0.6 -1.0 -0.3 0.0 0.7 0.8 0.3 -0.1 -0.5 -0.1 -0.4 0.4 0.5 -0.3 -0.5 -0.9 -1.6
6.5 6.5 6.5 6.5 6.5 6.5 6.5 6.5 6.1 6.3 6.5 6.3 5.9 6.4 6.2 5.1 6.5 6.5 4.9 4.3 3.3 1.3 -0.5 -1.9 -2.2 -2.9 -1.1 -1.4 -0.9 -0.3 -0.8 -0.3 0.2 -0.3 -0.8 -0.9 -0.7 -0.2 0.2 0.1 -0.6 -0.7 -0.9 -1.3
6.5 6.5 6.5 6.5 6.5 6.5 6.5 6.4 5.6 6.5 6.5 5.6 5.1 5.1 5.3 6.4 5.3 5.4 4.3 3.9 4.0 2.4 0.6 -0.3 -0.8 -0.3 -0.7 -0.4 -0.3 -0.7 -1.0 -0.4 -0.9 -1.2 -1.0 -0.8 -0.6 -0.5 0.5 -0.1 -0.5 -0.8 -0.9 -0.9
6.5 6.5 6.5 6.5 6.5 6.5 6.2 6.3 6.5 6.1 4.9 4.5 4.5 4.5 4.4 4.6 5.5 5.3 4.3 3.6 3.8 3.1 1.6 1.1 0.9 0.0 -0.5 -0.3 -0.4 -0.8 -0.6 -0.9 -1.1 -1.3 -0.9 -0.6 -0.5 0.6 0.2 -0.1 -0.5 -0.2 -0.6 -0.6
6.5 6.5 6.5 6.5 6.5 6.2 5.0 5.5 4.7 4.3 4.1 5.2 4.6 4.8 4.4 5.0 5.1 4.5 3.6 2.9 3.0 2.9 2.4 1.5 1.0 1.5 0.9 0.8 0.6 0.8 -0.2 -0.1 -0.6 -0.5 -0.4 -0.3 0.7 0.3 0.4 0.0 -0.2 -0.0 -0.1 -0.4
6.5 6.4 6.5 6.5 6.5 6.4 5.1 4.3 3.8 4.0 4.3 4.0 3.8 3.6 4.2 4.6 4.6 4.4 3.5 3.0 2.9 2.8 3.2 2.7 2.5 2.0 1.1 0.6 1.1 1.1 0.2 0.0 0.0 -0.1 -0.1 -0.5 -0.5 -0.2 0.5 0.4 0.4 0.3 -0.0 -0.3
6.4 6.4 6.5 6.5 6.5 6.0 5.3 4.6 4.3 4.3 4.3 4.4 5.0 5.4 5.4 5.6 5.7 5.9 4.4 3.9 3.4 3.2 2.9 2.9 3.0 2.6 2.3 1.9 1.5 0.1 0.2 0.1 0.1 0.2 -0.1 0.1 -0.2 -0.0 -0.2 0.4 0.1 0.2 0.6 0.3
6.3 6.5 6.5 6.5 6.1 5.6 6.0 5.5 5.5 4.0 4.3 4.7 4.2 4.0 3.2 3.0 3.5 4.0 3.6 3.3 3.2 2.5 2.2 1.8 2.3 2.7 2.5 2.1 1.8 0.3 0.4 0.3 -0.1 -0.5 -0.3 -0.8 -0.8 -0.9 -1.0 -1.3 -2.6 -1.6 -0.3 0.3
Wind_Speed
3 4 6 8 6 5 3 2 4 7 3 2 6 3 13 10 8 9 10 10 14 13 7 7 17 14 8 10 11 12 10 9 9 5 6 3 3 2 2 9 12 14 16 17
1 8 8 6 7 4 4 2 8 9 5 6 5 10 7 11 10 15 16 12 15 6 7 9 9 12 15 14 13 11 11 12 9 8 3 4 4 2 2 9 10 12 15 15
8 5 8 6 4 4 4 5 7 10 1 3 3 6 3 2 4 8 14 10 7 10 14 10 13 14 13 15 15 15 14 14 11 10 6 5 6 5 2 1 2 7 14 16
7 6 7 4 7 7 6 10 12 8 4 3 2 3 2 4 6 14 16 12 13 12 11 6 11 14 16 15 14 14 14 14 10 10 10 9 8 4 4 4 3 7 12 15
8 8 6 5 13 6 10 3 10 5 4 4 1 3 5 3 7 15 15 17 13 15 13 13 14 15 13 14 11 11 10 11 10 11 12 9 6 5 3 3 6 4 8 15
9 2 7 9 6 9 4 3 6 4 3 1 3 5 5 5 8 10 10 14 15 16 14 9 8 9 12 9 10 10 12 12 8 10 10 13 13 10 6 5 5 4 3 8
2 4 2 4 2 1 3 5 1 2 3 6 4 3 8 7 8 8 17 18 18 16 13 10 10 13 13 14 13 10 14 15 15 14 12 12 14 14 12 10 7 8 5 4
6 6 9 4 8 7 6 8 6 6 3 5 3 4 5 6 6 7 9 17 15 15 14 11 12 12 14 16 16 16 16 16 15 14 14 12 13 9 9 11 9 8 8 7
7 6 4 6 6 8 4 3 4 7 3 2 3 6 6 5 7 4 7 9 13 15 14 14 9 12 13 15 18 19 18 17 14 14 13 12 11 12 10 11 10 8 9 10
7 3 5 5 5 3 8 7 3 3 5 4 5 4 5 3 3 3 5 9 10 11 11 12 11 12 12 13 14 15 15 14 13 14 13 11 12 12 10 10 12 11 11 15
7 5 5 4 5 8 3 3 5 5 4 7 2 6 7 10 9 9 10 10 10 13 13 14 13 10 10 12 13 15 13 14 13 11 10 12 11 11 10 11 12 12 15 17
11 7 8 9 5 4 6 9 8 6 5 2 4 7 4 9 9 7 9 9 8 11 12 11 12 7 10 15 15 16 15 14 14 11 12 11 10 11 11 11 11 16 12 17
8 4 2 7 4 2 5 5 4 5 4 8 6 5 2 4 5 7 9 10 8 9 8 8 7 11 14 14 14 15 16 16 12 11 11 8 9 11 10 11 12 12 12 13
9 5 9 13 5 5 4 5 6 6 5 6 6 5 4 6 7 5 8 10 6 10 10 9 7 12 13 13 13 14 14 14 13 12 11 10 10 10 10 12 11 12 13 13
6 7 6 5 9 7 6 7 8 6 5 7 7 9 8 4 5 4 6 8 6 8 8 11 10 8 7 10 11 12 12 12 14 13 13 12 10 11 12 12 12 12 12 11
1 2 3 2 5 6 4 7 8 5 4 3 4 4 3 4 5 7 7 7 8 7 8 7 6 6 10 11 12 12 11 12 13 14 13 10 11 12 11 11 11 12 12 12
3 5 3 4 4 6 2 7 5 4 3 6 5 6 4 5 6 6 6 6 7 8 7 8 8 9 10 12 10 12 11 11 12 12 12 13 13 13 12 12 12 13 13 12
5 5 3 4 2 3 6 1 5 7 4 5 6 2 2 1 5 6 5 6 9 9 9 9 7 9 10 7 7 7 9 11 11 11 12 12 12 13 13 13 13 12 11 12
3 5 3 5 4 4 2 4 6 5 4 1 4 0 3 2 1 1 9 7 7 8 10 12 11 8 7 8 8 9 7 8 8 10 11 12 13 14 14 14 14 12 12 11
5 7 4 3 5 7 8 1 1 5 3 5 6 3 4 3 3 3 7 9 11 9 8 10 5 4 8 7 9 10 8 9 10 10 12 13 14 15 15 14 14 11 11 11
2 3 5 3 3 4 5 4 3 6 5 6 6 6 3 4 3 3 6 7 6 6 7 7 7 5 8 10 10 9 9 9 7 9 10 11 12 13 13 12 11 13 12 11
6 6 3 2 3 5 1 2 6 5 5 8 6 6 6 6 4 2 4 6 8 10 7 7 6 5 5 3 7 7 7 7 10 11 10 10 10 10 10 13 11 12 12 12
3 3 5 4 4 2 4 4 5 4 6 4 6 5 7 6 3 3 4 7 8 8 7 5 5 3 3 5 5 7 6 10 10 12 11 10 11 10 11 12 12 10 10 10
2 2 3 4 4 4 5 6 7 7 7 7 7 7 6 5 4 5 5 6 6 6 6 6 3 1 5 5 5 4 9 10 12 11 10 10 10 9 10 8 9 9 10 9
1 3 5 4 4 4 9 6 6 8 8 9 6 5 5 4 3 3 5 7 6 5 5 4 4 4 7 4 4 5 8 10 9 9 10 9 8 10 9 8 9 10 11 13
2 4 3 4 4 5 2 3 5 9 7 7 7 7 8 8 7 6 6 6 6 7 7 6 7 6 7 6 6 8 9 11 11 9 8 9 9 8 8 8 4 7 6 14
Wind_Direction
179 133 199 210 185 170 164 208 286 264 238 178 250 288 186 191 162 149 181 190 214 215 167 191 189 185 159 162 161 166 158 162 149 144 141 131 153 147 144 161 149 146 145 139
104 212 210 204 157 195 195 239 270 292 223 168 301 289 192 182 187 180 176 199 213 196 191 219 166 168 176 174 171 169 167 164 162 160 142 139 140 155 169 164 154 146 150 151
199 206 176 177 203 198 212 200 258 234 328 46 44 323 82 43 110 178 208 198 222 204 206 202 176 177 172 178 177 179 179 174 165 153 128 94 85 74 78 86 126 151 161 161
223 212 195 177 229 175 260 211 233 246 148 200 164 261 305 189 178 199 206 208 210 219 220 178 184 182 182 184 181 177 184 175 168 160 159 163 172 156 193 170 146 153 160 149
228 171 174 185 232 148 236 190 206 196 150 119 280 76 263 139 221 215 209 212 208 225 214 205 191 189 182 177 177 176 184 187 173 173 170 167 162 161 159 141 138 134 135 146
216 169 154 202 236 175 233 79 43 44 68 357 196 130 282 212 210 202 206 219 212 224 222 216 176 170 180 161 167 171 173 185 181 176 171 174 173 168 153 154 148 144 135 137
356 251 218 189 266 110 114 92 328 336 349 228 168 105 236 254 237 183 196 203 212 216 222 207 182 179 175 175 176 172 177 187 185 188 183 178 181 178 174 169 164 151 156 163
174 276 193 183 185 193 190 164 155 196 210 257 328 225 244 289 316 219 205 198 193 205 218 205 198 184 183 177 181 185 189 195 197 184 188 188 180 182 180 173 167 170 175 163
164 241 278 175 176 148 204 171 189 106 359 50 240 290 314 350 29 58 145 154 192 209 218 222 190 184 183 184 187 191 196 200 194 198 191 188 179 185 183 174 167 171 156 154
200 178 213 233 134 210 161 167 90 3 138 208 290 280 225 243 204 157 174 202 212 217 220 226 211 189 188 191 191 198 201 197 193 197 196 191 186 185 178 169 169 166 152 155
152 135 261 108 185 181 142 153 60 121 142 183 178 261 215 195 197 200 210 210 201 208 214 222 219 193 182 187 190 198 199 193 191 198 199 190 184 180 170 178 172 162 160 159
188 163 220 214 219 204 178 186 165 155 206 170 171 249 253 212 193 193 240 230 211 203 213 216 228 185 185 192 192 194 195 197 194 188 195 191 179 175 172 174 169 162 166 159
168 197 159 329 353 349 199 182 128 108 92 180 160 251 222 207 266 246 252 275 184 214 213 214 211 206 203 201 200 194 193 197 190 176 183 178 168 173 174 157 158 163 157 162
146 145 181 221 200 163 193 185 159 143 138 173 203 209 276 237 218 242 268 267 247 191 193 214 226 216 206 202 198 197 195 191 185 176 176 177 172 161 152 156 157 157 161 158
132 173 160 197 183 173 189 172 171 169 178 165 206 192 226 273 316 359 334 331 283 229 216 210 211 204 197 193 193 196 194 184 180 182 183 185 171 160 156 155 157 158 159 158
35 178 132 108 146 169 160 184 171 170 160 225 167 216 157 122 90 41 10 2 355 292 253 269 245 196 200 202 199 191 186 178 174 183 184 167 156 149 151 154 153 151 149 149
125 133 95 192 152 135 294 203 176 172 117 145 161 206 153 149 92 62 8 351 337 328 317 260 221 209 210 205 194 193 178 168 176 174 164 160 155 152 154 148 150 154 152 143
138 104 84 161 86 200 250 182 184 126 86 100 95 132 249 153 130 119 43 345 325 318 305 288 245 219 209 182 173 148 162 169 170 164 164 158 157 153 152 152 155 152 151 146
139 131 120 146 183 277 336 176 143 155 205 166 136 8 301 313 158 163 12 345 310 297 295 285 265 220 158 150 142 143 145 158 159 163 160 156 156 155 159 162 160 154 145 143
62 71 119 135 157 198 216 232 210 104 215 179 129 77 5 13 113 283 329 335 339 321 326 321 321 107 128 123 126 137 149 154 171 168 161 157 158 162 168 165 161 156 146 145
85 43 140 138 178 280 248 273 280 151 218 136 130 138 121 96 165 239 318 331 336 347 355 5 18 73 127 140 144 147 150 171 147 133 144 152 160 164 163 155 152 148 145 144
155 155 173 102 69 246 188 253 164 160 91 136 146 149 125 131 101 359 347 346 358 8 9 25 44 56 38 81 120 145 156 140 136 136 144 151 155 158 153 151 150 151 147 151
90 169 170 168 187 318 333 111 84 92 116 146 132 134 120 113 86 38 357 1 358 3 6 33 60 82 160 169 162 166 169 148 143 144 156 156 159 155 157 152 152 152 155 156
41 35 89 102 23 46 39 47 61 81 93 85 84 83 94 96 36 18 5 354 354 357 3 354 28 161 267 257 213 173 158 155 153 153 160 154 155 158 160 156 162 162 165 166
210 29 104 75 105 82 32 42 80 82 87 90 90 97 109 97 19 356 339 335 340 334 331 341 325 266 253 235 236 176 161 158 162 160 161 167 164 167 165 171 175 179 185 178
355 146 142 163 132 118 143 52 56 66 50 45 61 47 31 40 16 349 338 329 331 343 344 331 304 294 273 243 211 181 177 170 162 167 174 172 169 171 168 161 127 48 175 178